Preview of NWS' New Version of Forecast
This preview is not operational and should not be used for support decisions.

Regional Weather Roundup (RWR)

Issued by National Weather Service (NWS)

                            
000
ASUS44 KMEG 180210
RWRTN 
TENNESSEE HOURLY STATE WEATHER ROUNDUP
NATIONAL WEATHER SERVICE MEMPHIS TN
900 PM CDT WED JUL 17 2019

TNZ002-004-019-021-049-052-054-088>092-180300-
WEST TENNESSEE
  
CITY           SKY/WX    TMP DP  RH WIND       PRES   REMARKS
MEMPHIS INTL   FAIR      84  79  85 SW7       30.00S HX  96           
NWS MEMPHIS      N/A     85 N/A N/A MISG        N/A                   
JACKSON        FAIR      82  80  94 S3        30.01R HX  94           
DYERSBURG      FAIR      83  79  88 CALM      30.02R HX  94           
SOMERVILLE     CLEAR     82  77  83 SW6       30.00R HX  91           
COVINGTON      CLEAR     82  79  89 SW5       29.99R HX  93           
UNION CITY     CLOUDY    77  72  83 N20G25    30.00R                  
BOLIVAR        CLEAR     82  77  83 CALM      30.01R HX  91           
PARIS          CLOUDY    81  77  89 S7        30.00R                  
HUNTINGDON     CLOUDY    75  70  83 VRB3      30.00R                  
LEXINGTON      MOCLDY    82  81  94 CALM      30.01S HX  95           
SELMER         CLEAR     81  77  89 SW3       30.02R                  
SAVANNAH       PTCLDY    84  79  84 SW5       30.02R HX  96           
$$

TNZ008-025-027-028-033-062-065-066-180300-
NORTH MIDDLE TENNESSEE
  
CITY           SKY/WX    TMP DP  RH WIND       PRES   REMARKS
NASHVILLE      MOCLDY    83  75  77 SW6       30.01S HX  90           
PORTLAND       CLEAR     81  77  89 CALM      30.00S                  
CLARKSVILLE    FAIR      82  76  81 CALM      30.00R                  
LEBANON        CLEAR     81  77  89 SW8       29.99S                  
SMYRNA         FAIR      81  77  88 S5        30.02S                  
MURFREESBORO   PTCLDY    81  75  83 SW8       30.01R                  
COOKEVILLE     CLEAR     77  73  88 SW5       30.05R                  
LIVINGSTON     CLOUDY    77  75  94 VRB7      30.04S                  
GALLATIN       MOCLDY    81  77  89 CALM      30.02F                  
CROSSVILLE     FAIR      74  71  91 SW6       30.11R                  
ROCKWOOD       PTCLDY    75  73  94 W5        30.08R                  
$$

TNZ061-075-076-078-094-096-097-180300-
SOUTH MIDDLE TENNESSEE
  
CITY           SKY/WX    TMP DP  RH WIND       PRES   REMARKS
LAWRENCEBURG   CLOUDY    79  77  94 CALM      30.06R                  
LEWISBURG      MOCLDY    79  77  94 S5        30.03R                  
FAYETTEVILLE   CLOUDY    79  77  94 S5        30.06R                  
TULLAHOMA      PTCLDY    77  75  94 S3        30.06R                  
WINCHESTER     CLOUDY    77  75  94 SE5       30.06S                  
MCMINNVILLE    CLEAR     77  75  94 SW5       30.06R                  
COLUMBIA       MOCLDY    81  81 100 SE5       30.01R FOG     HX  91   
SHELBYVILLE    PTCLDY    79  77  94 CALM      30.04R                  
$$

TNZ017-018-042-046-047-180300-
NORTHEAST TENNESSEE
  
CITY           SKY/WX    TMP DP  RH WIND       PRES   REMARKS
TRI CITIES     LGT RAIN  75  72  90 W10       30.06S                  
ELIZABETHTON   CLOUDY    73  72  94 CALM      30.06F                  
GREENEVILLE    PTCLDY    75  72  88 SW5       30.07R                  
$$

TNZ012-013-036-069-073-074-180300-
CENTRAL EAST TENNESSEE
  
CITY           SKY/WX    TMP DP  RH WIND       PRES   REMARKS
KNOXVILLE      MOCLDY    77  73  87 SW6       30.04R                  
OAK RIDGE      FAIR      80  73  79 CALM      30.06R                  
DOWNTOWN KNOXV CLOUDY    75  75 100 CALM      30.05R                  
GATLINBURG     CLEAR     77  73  88 SW5       30.04R                  
MORRISTOWN     PTCLDY    77  73  88 W7        30.05R                  
JACKSBORO      PTCLDY    75  73  94 CALM      30.08R                  
$$

TNZ083-085-099-180300-
SOUTHEAST TENNESSEE
  
CITY           SKY/WX    TMP DP  RH WIND       PRES   REMARKS
CHATTANOOGA    MOCLDY    81  74  79 SW6       30.06R                  
DAYTON         PTCLDY    79  75  89 CALM      30.04R                  
$$

SKY/WX REPORTED AS FAIR MEANS FEW OR NO CLOUDS BELOW
12 THOUSAND FEET.